This is the latest recevied weather packets stored in our database for station/object NK7E. If no packets are shown the sender has not sent any weather packets the latest 10 day(s).
| Time | Temp. | Humidity | Pressure | Rain* | Wind** | Luminosity | Snow |
|---|---|---|---|---|---|---|---|
| 1777919117 | 25° C | 26% | 1014 hPa | 0 mm | - | 521 W/m² | - |
| 1777918517 | 25° C | 26% | 1014.3 hPa | 0 mm | - | 552 W/m² | - |
| 1777917917 | 24.44° C | 27% | 1014.2 hPa | 0 mm | - | 597 W/m² | - |
| 1777917317 | 24.44° C | 27% | 1014.3 hPa | 0 mm | - | 680 W/m² | - |
| 1777916717 | 24.44° C | 27% | 1014.3 hPa | 0 mm | - | 464 W/m² | - |
| 1777916117 | 24.44° C | 27% | 1014.4 hPa | 0 mm | - | 511 W/m² | - |
| 1777915517 | 23.89° C | 28% | 1014.5 hPa | 0 mm | - | 555 W/m² | - |
| 1777914917 | 23.89° C | 28% | 1014.5 hPa | 0 mm | - | 379 W/m² | - |
| 1777914317 | 23.89° C | 29% | 1014.4 hPa | 0 mm | - | 390 W/m² | - |
| 1777913717 | 23.89° C | 29% | 1014.4 hPa | 0 mm | - | 469 W/m² | - |
| 1777913117 | 23.89° C | 30% | 1014.3 hPa | 0 mm | - | 477 W/m² | - |
| 1777912517 | 23.89° C | 30% | 1014.3 hPa | 0 mm | - | 490 W/m² | - |
| 1777911917 | 23.89° C | 30% | 1014.2 hPa | 0 mm | - | 565 W/m² | - |
| 1777911317 | 23.89° C | 31% | 1014.4 hPa | 0 mm | - | 733 W/m² | - |
| 1777910717 | 23.33° C | 32% | 1014.5 hPa | 0 mm | - | 476 W/m² | - |
| 1777910117 | 23.33° C | 32% | 1014.4 hPa | 0 mm | - | 337 W/m² | - |
| 1777909517 | 22.78° C | 32% | 1014.3 hPa | 0 mm | - | 453 W/m² | - |
| 1777908917 | 22.78° C | 34% | 1014.4 hPa | 0 mm | - | 319 W/m² | - |
| 1777908317 | 22.78° C | 34% | 1014.2 hPa | 0 mm | - | 386 W/m² | - |
| 1777907717 | 22.78° C | 34% | 1014.4 hPa | 0 mm | - | 361 W/m² | - |
| 1777907117 | 22.78° C | 33% | 1014.4 hPa | 0 mm | - | 361 W/m² | - |
| 1777906517 | 22.22° C | 34% | 1014.3 hPa | 0 mm | - | 533 W/m² | - |
| 1777905917 | 22.22° C | 34% | 1014.3 hPa | 0 mm | - | 171 W/m² | - |
| 1777905317 | 22.22° C | 34% | 1014.2 hPa | 0 mm | - | 319 W/m² | - |
| 1777904717 | 21.67° C | 34% | 1014.3 hPa | 0 mm | - | 292 W/m² | - |
* Rain latest hour (hover to see other rain measurements)
** Current wind speed in m/s (hover to see current wind gust speed)